NSS-9

Last updated on Tue Oct 15 2024 00:02:38 GMT+0000 (Coordinated Universal Time)

1 33749U 09008A 24288.51438207 .00000070 00000+0 00000+0 0 9992 2 33749 0.0623 67.1070 0002184 129.2241 195.4882 1.00272168 57394
UTC large
Height (km)
Speed (km/s)
/
Latitude / Longitude
Inclination (degrees)
Orbital Period (minutes)
Azimuth
Elevation
Range (km)
Doppler Factor

Next 0 passes for location: London (51.5072 / 0.1276)

Sorry there are no passes over London.